Погода в Гожув-Велькопольски

Польша     52°44′10″N   15°13′09″E
темп.,
°C
ветер,
м/с
пор.,
м/с
влажн.,
%
обл.,
%
осадки,
мм/ч
давл.,
гПа
погр.,
м
18 января, пн
пн1801:00−10ююв238926 0.0 102380
04:00−9юв229071 0.0 102265
07:00−9ююв129285 0.0 102149
10:00−6юв229098 0.0 1021122
13:00−3ю248297 0.0 1020324
16:00−3ю249795 0.2 1019170
19:00−1ююз279997 0.7 1017249
22:00+1зюз41098100 1.8 1016442
19 января, вт
вт1901:00+2зюз41198100 2.9 1015524
04:00+2зюз51198100 0.4 1013533
07:00+2юз41097100 0.4 1013448
10:00+2юз41097100 0.1 1011490
13:00+1юз61197100 1.0 1009676
16:00+1ююз51098100 0.9 1006448
19:00+2ю4998100 2.2 1003344
22:00+5зюз51697100 4.5 1002722
20 января, ср
ср2001:00+5зюз61693100 5.1 1003738
04:00+5зюз71689100 0.0 1003726
07:00+3юз61589100 0.0 1003582
10:00+3юз71585100 0.0 1003582
13:00+4юз61584100 0.1 1003613
16:00+4юз61581100 0.0 1002559
19:00+3юз51581100 0.0 1003437
22:00+3юз51383100 0.0 1002411
21 января, чт
чт2101:00+4юз41483100 0.0 1002444
04:00+2ююз4138088 0.0 1001345
07:00+3ююз5137881 0.0 1001329
10:00+3ююз5166976 0.0 1001472
13:00+6ю6156687 0.0 1000596
16:00+5ююз4117479 0.0 999327
19:00+3ю4118485 0.0 998298
22:00+3ююз4118690 0.0 998343
22 января, пт
пт2201:00+3ю4138190 0.0 996358
04:00+4ююв41176100 0.4 995325
07:00+3ю51372100 0.4 993364
10:00+4ююв3683100 0.0 991190
13:00+7ююз41073100 0.0 991622
16:00+6ююз4127957 0.0 991524
19:00+4зюз5138279 0.0 993626
22:00+3юз51380100 0.0 995562